KMGC

Details ICAO KMGC (MGC)
Name MICHIGAN CITY MUNI
Region United States
Timezone America/Chicago (UTC-5.0)
Plans Departing 5
Arriving 12
Stats Elevation 655 ft / 200 m (AMSL)
Location 41.703319° -86.821243°
Runways 1
Magnetic Variation 4.565° W
Sunrise 2018-05-23 10:22:05 UTC / 2018-05-23 05:22:05 Local
Sunset 2018-05-24 01:08:53 UTC / 2018-05-23 20:08:53 Local
Advertisement - Login to hide

Runways

ID Width Length Bearing (true) Bearing (mag) Surface Threshold Offset Overrun Length
02 75 ft / 23 m 4,104 ft / 1,251 m 20.25° 24.82° Asphalt 360 ft / 110 m 0 ft / 0 m
20 75 ft / 23 m 4,104 ft / 1,251 m 200.25° 204.82° Asphalt 183 ft / 56 m 0 ft / 0 m

Map

Weather


0- 5 10 15 20 25 30 35+ Temperature / ° C

Clouds and Precipitation
Forecast for 2018-05-23 18:00 UTC. Updated 19 minutes ago

Ground ~20,000 ft ~40,000 ft Winds

METAR

KMGC 231735Z AUTO 34006KT 10SM CLR 21/14 A3022 RMK AO2

TAF

Not found

Frequencies

Unicom 122.70 MHz CTAF/UNICOM
Approach 118.55 MHz SOUTH BEND APP/DEP
Clearance 134.80 MHz SOUTH BEND CLNC DEL
Warning: Do not use this data for real-world aviation or navigation. No guarantee of current accuracy is given.